Location: Little Baddow
(51.7333°N, 0.5667°E)
Time: 00:25:27
(UTC+00:00)

CENTAUR R/B - Pass Details

Date: 08 November 2025
Orbit: 633 x 1547 km, 63.4° (Epoch: 04 December)

Event Time Altitude Azimuth Distance (km) Brightness Sun altitude
Exits shadow 03:52:02 29° 334° (NNW) 2,046 4.0 -29.8°
Maximum altitude 03:54:40 36° 11° (N) 1,887 4.1 -29.4°
Drops below altitude 10° 04:02:30 10° 76° (ENE) 3,530 6.4 -28.2°
Sets 04:06:01 0° 84° (E) 4,600 7.3 -27.7°
